Showing default

BRAZILSAT 2, 16650

Orbit data source: Space-Track

BRAZILSAT 2, 16650 is a payload satellite owned by Embratel (BR) in GEO that was launched on Fri, 28 Mar 1986 UTC via an ARIANE 3 launch vehicle from the French Guiana (FRGUI). Payload-class satellites include a variety of spacecraft equipped with specific instruments for various scientific and technological missions. These include communications satellites like Starlink; space stations such as the ISS; scientific satellites like the Hubble; Earth observation satellites from companies like Planet Labs, Umbra, and HawkEye 360; GPS; miniature CubeSats for education and research; and military/defense satellites.

Loading next visibility...
Identifier
16650, 1986-026B
Orbit
GEO
Country
Flag of BRBR / BRAZ
Related business
Manufacturer
Hughes
Mission
Non-operational spacecraft
Bus & Motor
HS-376, TE-M-700-17
Mass
1,195 kg wet, 583 kg dry
Launch date (UTC)
1986-03-28 (40 years ago)
Launch vehicle
ARIANE 3
Launch site
French Guiana (FRGUI)
Object type
Payload
Rocket body
Debris
Shape & HBR
Unknown
Radar Cross Section
Large (>1 m²)

Expand to show TLE details & history
Last TLE update: 20 hours ago

TLE from 20 hours ago
0 BRAZILSAT 2
1 16650U 86026B   26105.09561225 -.00000269  00000-0  00000-0 0  9992
2 16650  14.5506 350.8938 0004600 341.3659 210.5241  0.99641547 45759
Epoch: 2026-04-15T02:17Z
TLE epoch observation values (Epoch: 2026-04-15T02:17:40.898Z)
Latitude
-2.97015°
Longitude
-55.28544°
Altitude
35,981.032 km
Speed
3.067 km/s
True Right ascension
12h 09m 35s
True Declination
-2° 58' 02"
Sunlit
Object was in daylight at epoch
Visualization orbit readout
Latitude
Unknown
Longitude
Unknown
Altitude
Unknown
Speed
Unknown
Apparent Right ascension
Unknown
Apparent Declination
Unknown
Sunlit
N/A
Visualization observer readout
Local Sidereal Time
04:56:41
Azimuth
Unknown
Elevation
Unknown
Doppler factor
Unknown
Orbital elements
Apogee altitude
35,984.65 km
Perigee altitude
35,945.694 km
Semi-major axis
42,343.309 km
Eccentricity
0.00046
Inclination
14.5506°
RAAN
350.8938°
Arg. of periapsis
341.3659°
True anomaly
210.49734°
Mean anomaly
210.5241°
Eccentric anomaly
210.51072°
Mean motion
0.2491 °/min
Orbital period
1,445.23 mins
BSTAR
0
Loading maneuver chart data...
Computing Atmospheric mass density...
Loading historical data...
Loading historical data...
Loading historical data...
Loading historical data...
Loading historical data...
Loading historical data...
Loading historical data...

Documentation

Showing up to 5 results
|